Weather in Nadezhdovka

Ukraine / Mykolaiv District     47°47′11″N   31°42′59″E
temp.,
°C
wind,
m/s
gust,
m/s
humid.,
%
clouds,
%
prec.,
mm/h
press.,
hPa
HPBL,
m
11 may, tue
tue1100:00+9n466448 0.0 102285
03:00+8nnw4107142 0.0 1021184
06:00+10nnw5136469 0.0 1019393
09:00+13n6106298 0.0 1019601
12:00+18n7105688 0.0 1017872
15:00+21nne9115263 0.0 10151848
18:00+18nne696785 0.4 1015783
21:00+13ne4885100 0.9 1016419
12 may, wed
wed1200:00+9ene47856 0.0 1016134
03:00+7ne47850 0.0 1015142
06:00+6ne49915 0.0 1016280
09:00+10ne577282 0.0 1015739
12:00+13ne565799 0.1 10141691
15:00+12ne4460100 0.2 1014864
18:00+12ene4465100 0.1 1013472
21:00+11ene1167100 0.1 101311
13 may, thu
thu1300:00+10ese3474100 0.0 1013118
03:00+9se237677 0.0 101379
06:00+7se33853 0.0 101258
09:00+13ese445999 0.0 1013603
12:00+17se5550100 0.0 10121116
15:00+19sse4651100 0.0 10111437
18:00+18se5765100 0.4 1010902
21:00+15se3679100 0.9 100998
14 may, fri
fri1400:00+12sse3389100 0.0 100946
03:00+11s339062 0.0 100939
06:00+10s3389100 0.0 100948
09:00+16sse346559 0.0 1009465
12:00+21s565286 0.0 10091222
15:00+23s795033 0.1 10081854
18:00+21s675946 0.0 10081113
21:00+15s5108285 0.0 1009242
15 may, sat
sat1500:00+13s4118930 0.0 1010209
03:00+12sw37930 0.0 1010124
06:00+11w349477 0.0 101178
09:00+17w2371100 0.0 1012369
12:00+22ssw45514 0.0 10121520
15:00+24sw4639100 0.1 10112716
18:00+20ssw3761100 0.0 1012161
21:00+16s45743 0.0 101272